[[{"header":{"parameterUnit":"m.s-1","parameterCategory":1,"la1":30.2991,"la2":30.254,"lo1":-89.0895,"lo2":-89.0444,"dy":0.0017,"dx":0.0017,"nx":28,"ny":28,"refTime":"2025-01-19T03:00:00:Z","depth":0,"parameterNumber":2,"parameterNumberName":"U-component_of_WINDS"},"data":[0,0,0,0,0,0,0,0,0,0,0,0,0,0,0,0,0,0,0,0,0,0,0,0,0,0,0,0,0,0,0,0,0,0,0,0,0,0,0,0,0,0,0,0,0,0,0,0,0,0,0,0,0,0,0,0,0,0,0.2674,0.2674,0,0.2638,0.2638,0.2637,0.2656,0.2657,0.2658,0.2659,0.2618,0.2617,0.2615,0,0,0,0,0,0,0,0,0,0,0,0,0,0.2757,0.2756,0.2674,0.2674,0.2673,0.2638,0.2638,0.2637,0.2656,0.2657,0.2658,0.2659,0.2619,0.2617,0.2614,0,0,0,0,0,0,0,0,0,0,0,0,0,0.2721,0.2755,0.2674,0.2678,0.2678,0.2638,0.2638,0.2637,0.2656,0.2657,0.2659,0.266,0.262,0.2617,0.2614,0.2566,0,0,0.2605,0.2604,0,0,0,0,0,0,0,0,0.2723,0.2718,0.2678,0.2678,0.2678,0.2653,0.2652,0.2613,0.2655,0.2664,0.2659,0.2661,0.2629,0.2625,0.2615,0.2564,0.2563,0.2605,0.2603,0.2602,0.2601,0,0,0,0,0,0,0,0.2726,0.272,0.266,0.2678,0.2677,0.2682,0.2678,0.2645,0.2638,0.2664,0.2665,0.2661,0.2629,0.2618,0.2614,0.2562,0.2605,0.2602,0.26,0.2599,0.2472,0.2471,0,0,0,0,0,0,0.2728,0.2722,0.2661,0.2659,0.2705,0.2679,0.2675,0.266,0.2639,0.2637,0.2659,0.2662,0.2622,0.2618,0.2613,0.2556,0.2602,0.2599,0.2597,0.2474,0.2472,0.247,0,0,0,0,0,0,0.273,0.2723,0.2662,0.269,0.2683,0.2676,0.2658,0.2658,0.2647,0.2636,0.2634,0.2649,0.2623,0.2617,0.2578,0.2555,0.2598,0.2595,0.2475,0.2473,0.2471,0.2441,0,0,0,0,0,0,0.2732,0.2723,0.2705,0.269,0.2682,0.2629,0.2657,0.2656,0.2642,0.2645,0.2626,0.2624,0.2624,0.2583,0.2575,0.2551,0.2592,0.2478,0.2474,0.2472,0.2444,0.2438,0.2433,0,0,0,0,0,0.2735,0.2697,0.2704,0.2697,0.2659,0.2627,0.2622,0.2624,0.264,0.2622,0.2615,0.2625,0.2559,0.2579,0.257,0.2545,0.2479,0.2475,0.2472,0.2447,0.2439,0.2433,0,0,0,0,0,0,0.2708,0.2695,0.2703,0.2659,0.2644,0.2631,0.2607,0.2616,0.2595,0.2598,0.2599,0.2595,0.2555,0.2546,0.2568,0.2499,0.2521,0.2516,0.2505,0.2498,0.2492,0.2494,0.259,0,0,0,0,0,0.2697,0.2673,0.2663,0.2626,0.2618,0.2614,0.26,0.2603,0.2587,0.2581,0.2571,0.2554,0.253,0.2514,0.2491,0.2444,0.244,0.2423,0.2417,0.2413,0.2407,0.2382,0.2375,0.2458,0.2458,0.2458,0,0,0.2674,0.2664,0.2648,0.262,0.2609,0.2583,0.2608,0.258,0.2561,0.2576,0.2539,0.2532,0.2514,0.2471,0.2451,0.2462,0.2384,0.2408,0.2404,0.2402,0.2378,0.237,0.2363,0.2456,0.2456,0.2457,0,0,0.2618,0.2609,0.2577,0.2566,0.255,0.2548,0.254,0.2526,0.2522,0.2485,0.2496,0.2474,0.2432,0.2419,0.2406,0.2349,0.2357,0.2342,0.2311,0.2287,0.228,0.2274,0.2253,0.2246,0.2337,0.2337,0.2337,0,0.2591,0.2554,0.2559,0.253,0.2517,0.2532,0.2499,0.2488,0.2464,0.2455,0.2468,0.2417,0.2406,0.2361,0.2347,0.2337,0.2328,0.2342,0.2281,0.2275,0.227,0.225,0.2242,0.2335,0.2335,0.2335,0.2335,0,0.2521,0.2495,0.2471,0.245,0.2435,0.2404,0.2404,0.2388,0.2393,0.2389,0.2352,0.234,0.2315,0.2305,0.2309,0.2261,0.2268,0.2281,0.2304,0.226,0.2241,0.2234,0.2332,0.2333,0.2333,0.2334,0,0,0.2444,0.2428,0.2419,0.241,0.2395,0.2374,0.2345,0.2323,0.2309,0.2293,0.2268,0.2233,0.2246,0.2232,0.2235,0.2214,0.2169,0.223,0.2229,0.2218,0.2116,0.2105,0.2096,0.2176,0.2174,0.2173,0.2117,0,0.2387,0.2336,0.2341,0.2293,0.2269,0.2284,0.2259,0.2246,0.2243,0.2222,0.2218,0.2194,0.2213,0.2205,0.2185,0.2179,0.2148,0.2183,0.2151,0.215,0.2154,0.2086,0.2074,0.2021,0.211,0.2108,0.2108,0,0.2313,0.2296,0.2246,0.2235,0.2226,0.2202,0.2183,0.2163,0.215,0.2149,0.2135,0.2142,0.2112,0.2138,0.2097,0.212,0.2108,0.2104,0.2102,0.2097,0.2125,0.2079,0.2005,0.1996,0.2096,0.2097,0.2098,0,0.2261,0.2226,0.2192,0.2184,0.2171,0.2154,0.2148,0.2136,0.2123,0.2106,0.2097,0.2076,0.2065,0.2048,0.205,0.2068,0.2008,0.2033,0.2006,0.2006,0.199,0.1991,0.1912,0.1985,0.1985,0.1985,0.1985,0,0.2195,0.2164,0.2168,0.2147,0.2113,0.2119,0.2084,0.208,0.207,0.2047,0.2059,0.2038,0.2042,0.2021,0.2022,0.1988,0.1982,0.198,0.1981,0.1978,0.1978,0.1969,0.1972,0.1983,0.1984,0.1984,0.1984,0,0.2131,0.2133,0.2096,0.2088,0.2085,0.206,0.2053,0.2032,0.2032,0.2004,0.1997,0.1995,0.1971,0.1972,0.1944,0.1945,0.1903,0.1908,0.1907,0.1908,0.188,0.1882,0.1791,0.1779,0.1861,0.186,0.1859,0,0.2088,0.2064,0.2054,0.2041,0.2034,0.2012,0.2,0.2006,0.1991,0.1976,0.1957,0.1935,0.1917,0.1878,0.1874,0.1853,0.1857,0.1827,0.1854,0.1853,0.1856,0.1856,0.1854,0.182,0.182,0.1819,0.1818,0,0.2012,0.2014,0.1996,0.1978,0.1963,0.1949,0.1936,0.1924,0.1929,0.1913,0.1889,0.1875,0.1849,0.1826,0.1806,0.18,0.1809,0.181,0.1803,0.1799,0.18,0.1798,0.1891,0.1812,0.1812,0.1813,0.1813,0.1813,0.1956,0.1936,0.1926,0.1906,0.1897,0.1885,0.1867,0.1864,0.1845,0.1824,0.1829,0.1803,0.1792,0.1767,0.1759,0.1738,0.1748,0.1737,0.1734,0.1731,0.1728,0.1805,0.1734,0.1735,0.1735,0.1735,0.1735,0,0.1879,0.1875,0.1856,0.1839,0.1822,0.1836,0.1823,0.1808,0.1785,0.1774,0.1758,0.1731,0.171,0.1705,0.1685,0.1669,0.1673,0.1664,0.1664,0.1662,0.172,0.1728,0.1661,0.1661,0.1661,0.1661,0.1661,0.1661,0.1838,0.1805,0.1807,0.177,0.1766,0.1741,0.1733,0.1722,0.1714,0.1684,0.1667,0.1665,0.1657,0.1636,0.1618,0.1617,0.1608,0.1597,0.1597,0.1651,0.1658,0.1665,0.1673,0.1595,0.1595,0.1542,0.1541,0.1541]},{"header":{"parameterUnit":"m.s-1","parameterCategory":1,"la1":30.2991,"la2":30.254,"lo1":-89.0895,"lo2":-89.0444,"dy":0.0017,"dx":0.0017,"nx":28,"ny":28,"refTime":"2025-01-19T03:00:00:Z","depth":0,"parameterNumber":3,"parameterNumberName":"V-component_of_WINDS"},"data":[0,0,0,0,0,0,0,0,0,0,0,0,0,0,0,0,0,0,0,0,0,0,0,0,0,0,0,0,0,0,0,0,0,0,0,0,0,0,0,0,0,0,0,0,0,0,0,0,0,0,0,0,0,0,0,0,0,0,-7.8381,-7.8383,0,-7.8529,-7.8531,-7.8532,-7.8416,-7.8411,-7.8406,-7.8401,-7.8547,-7.8556,-7.8564,0,0,0,0,0,0,0,0,0,0,0,0,0,-7.7992,-7.8,-7.8381,-7.8383,-7.8385,-7.8529,-7.8531,-7.8533,-7.8417,-7.8411,-7.8405,-7.8399,-7.8545,-7.8555,-7.8565,0,0,0,0,0,0,0,0,0,0,0,0,0,-7.8153,-7.8002,-7.838,-7.8344,-7.8342,-7.8528,-7.8531,-7.8533,-7.8418,-7.841,-7.8403,-7.8396,-7.8541,-7.8554,-7.8566,-7.8794,0,0,-7.8605,-7.8611,0,0,0,0,0,0,0,0,-7.8144,-7.8167,-7.8348,-7.8347,-7.8345,-7.8446,-7.8447,-7.8621,-7.842,-7.8389,-7.8401,-7.8392,-7.8519,-7.8534,-7.8577,-7.8801,-7.8807,-7.8606,-7.8614,-7.862,-7.8623,0,0,0,0,0,0,0,-7.8133,-7.816,-7.8439,-7.835,-7.8349,-7.8319,-7.8333,-7.8479,-7.8494,-7.8391,-7.8383,-7.8402,-7.8517,-7.8565,-7.858,-7.8809,-7.8606,-7.8617,-7.8625,-7.863,-7.9226,-7.9234,0,0,0,0,0,0,-7.8126,-7.8151,-7.8434,-7.8444,-7.8224,-7.8332,-7.8348,-7.8421,-7.8492,-7.8496,-7.8409,-7.8396,-7.8547,-7.8565,-7.8585,-7.8856,-7.862,-7.8632,-7.8639,-7.9218,-7.9228,-7.9237,0,0,0,0,0,0,-7.8118,-7.8152,-7.8428,-7.8295,-7.8328,-7.8346,-7.843,-7.8428,-7.8476,-7.8506,-7.8507,-7.8456,-7.8542,-7.8567,-7.8743,-7.8859,-7.8637,-7.8649,-7.9208,-7.9221,-7.9232,-7.9401,0,0,0,0,0,0,-7.8107,-7.815,-7.8238,-7.8298,-7.8336,-7.8587,-7.8437,-7.8436,-7.8499,-7.8485,-7.855,-7.8553,-7.8538,-7.8725,-7.8756,-7.8873,-7.8659,-7.9198,-7.9214,-7.9228,-7.9385,-7.9417,-7.9445,0,0,0,0,0,-7.8094,-7.8279,-7.8244,-7.8278,-7.8447,-7.8594,-7.8615,-7.8595,-7.8509,-7.8597,-7.8616,-7.8551,-7.8842,-7.8744,-7.8778,-7.8901,-7.9191,-7.9209,-7.9227,-7.9371,-7.9411,-7.9444,0,0,0,0,0,0,-7.823,-7.8286,-7.8247,-7.8458,-7.8522,-7.8574,-7.8684,-7.8638,-7.8726,-7.8709,-7.8679,-7.8694,-7.888,-7.8907,-7.8798,-7.9124,-7.9002,-7.9028,-7.91,-7.9138,-7.9167,-7.9156,-7.867,0,0,0,0,0,-7.8285,-7.8402,-7.8443,-7.8625,-7.8659,-7.8667,-7.873,-7.8709,-7.8774,-7.88,-7.8831,-7.8895,-7.9,-7.907,-7.9168,-7.9388,-7.94,-7.9489,-7.9519,-7.9543,-7.9566,-7.9683,-7.9723,-7.9297,-7.9297,-7.9296,0,0,-7.8399,-7.8444,-7.8519,-7.8653,-7.8701,-7.882,-7.869,-7.8822,-7.891,-7.8819,-7.8988,-7.9014,-7.9082,-7.9281,-7.937,-7.931,-7.9686,-7.9567,-7.9586,-7.9596,-7.9706,-7.9746,-7.9782,-7.9309,-7.9307,-7.9305,0,0,-7.8669,-7.8715,-7.8871,-7.8921,-7.8995,-7.8999,-7.9036,-7.9096,-7.9109,-7.9279,-7.9213,-7.9316,-7.9498,-7.955,-7.96,-7.9888,-7.9832,-7.9921,-8.0078,-8.0192,-8.0226,-8.0255,-8.0358,-8.0395,-7.9943,-7.9944,-7.9944,0,-7.8801,-7.898,-7.8956,-7.9094,-7.9154,-7.9079,-7.9236,-7.9285,-7.9387,-7.943,-7.9361,-7.9588,-7.9629,-7.9838,-7.9909,-7.9952,-7.9993,-7.9913,-8.0223,-8.0252,-8.028,-8.0377,-8.0416,-7.9954,-7.9953,-7.9952,-7.9951,0,-7.9138,-7.9264,-7.9381,-7.9483,-7.9556,-7.9703,-7.97,-7.9776,-7.9749,-7.9759,-7.9932,-7.9978,-8.0085,-8.0132,-8.0106,-8.0339,-8.0299,-8.0228,-8.0104,-8.0331,-8.0422,-8.0459,-7.9969,-7.9965,-7.9962,-7.996,0,0,-7.9499,-7.9586,-7.9629,-7.9675,-7.975,-7.9846,-7.9988,-8.0094,-8.016,-8.0232,-8.0349,-8.0505,-8.044,-8.0496,-8.0475,-8.0576,-8.0801,-8.0491,-8.0492,-8.0547,-8.1058,-8.1112,-8.1156,-8.0764,-8.0771,-8.0776,-8.1052,0,-7.9771,-8.0021,-8.0004,-8.0238,-8.0353,-8.0283,-8.0406,-8.0465,-8.0478,-8.0576,-8.0589,-8.07,-8.0605,-8.0639,-8.0735,-8.0753,-8.0903,-8.0733,-8.0871,-8.0877,-8.0857,-8.1203,-8.1261,-8.1519,-8.1088,-8.1094,-8.1098,0,-8.0123,-8.021,-8.0457,-8.0515,-8.0562,-8.0674,-8.0769,-8.0864,-8.0928,-8.093,-8.0995,-8.0956,-8.1097,-8.0971,-8.1164,-8.1049,-8.1104,-8.1121,-8.113,-8.1143,-8.1002,-8.1225,-8.1601,-8.164,-8.1154,-8.1149,-8.1145,0,-8.0361,-8.0539,-8.0709,-8.075,-8.0822,-8.0902,-8.0936,-8.0993,-8.1057,-8.114,-8.1181,-8.1278,-8.1331,-8.1406,-8.1395,-8.1304,-8.1592,-8.1464,-8.1596,-8.1597,-8.166,-8.1657,-8.2051,-8.1696,-8.1696,-8.1695,-8.1694,0,-8.0668,-8.0822,-8.0817,-8.0923,-8.1092,-8.1069,-8.1237,-8.1261,-8.1312,-8.1419,-8.1363,-8.1464,-8.1442,-8.1542,-8.1533,-8.1694,-8.1719,-8.1723,-8.1719,-8.1729,-8.1728,-8.1765,-8.1747,-8.1705,-8.1703,-8.1701,-8.1699,0,-8.0963,-8.0966,-8.1148,-8.1201,-8.1218,-8.1341,-8.1385,-8.1484,-8.1492,-8.1628,-8.1658,-8.1671,-8.1785,-8.1781,-8.191,-8.1904,-8.2103,-8.2077,-8.2082,-8.2077,-8.2209,-8.2197,-8.2641,-8.2698,-8.2306,-8.231,-8.2313,0,-8.1158,-8.1275,-8.1342,-8.141,-8.1449,-8.156,-8.1626,-8.1607,-8.1678,-8.176,-8.1848,-8.1958,-8.2045,-8.2231,-8.2251,-8.2349,-8.2326,-8.2475,-8.234,-8.2346,-8.2328,-8.2321,-8.2333,-8.2501,-8.2506,-8.2509,-8.2512,0,-8.1506,-8.1501,-8.16,-8.1699,-8.178,-8.1856,-8.1927,-8.1985,-8.1974,-8.2055,-8.2173,-8.2241,-8.2374,-8.2483,-8.2578,-8.2609,-8.2559,-8.2554,-8.259,-8.2601,-8.2599,-8.2602,-8.2154,-8.2544,-8.2541,-8.2539,-8.2537,-8.2536,-8.1757,-8.1857,-8.192,-8.2031,-8.2082,-8.2149,-8.2244,-8.2265,-8.2363,-8.2471,-8.2453,-8.2585,-8.2644,-8.2766,-8.2807,-8.2908,-8.2855,-8.2907,-8.292,-8.2933,-8.2948,-8.2583,-8.2925,-8.2924,-8.2923,-8.2922,-8.2921,0,-8.2101,-8.2138,-8.224,-8.2341,-8.2428,-8.2375,-8.2449,-8.2525,-8.2642,-8.2703,-8.279,-8.2925,-8.303,-8.3058,-8.3159,-8.3235,-8.3214,-8.3262,-8.3256,-8.3264,-8.299,-8.2949,-8.3277,-8.3277,-8.3277,-8.3277,-8.3277,-8.3277,-8.229,-8.2457,-8.2461,-8.2652,-8.2686,-8.2817,-8.2864,-8.2925,-8.2973,-8.3127,-8.3215,-8.3233,-8.328,-8.3384,-8.3478,-8.3483,-8.3523,-8.358,-8.3576,-8.3319,-8.3284,-8.325,-8.3211,-8.3589,-8.3589,-8.3842,-8.3844,-8.3846]}]]